Location: Maiden
(35.5760°N, 81.2120°W)
Time: 03:27:39
(UTC-04:00)

Cosmos 2239 Rocket - Pass Details

Date: 02 August 2020
Orbit: 954 x 992 km, 82.9° (Epoch: 11 August)

Event Time Altitude Azimuth Distance (km) Brightness Sun altitude
Exits shadow 22:32:17 40° 162° (SSE) 1,380 4.8 -22.2°
Maximum altitude 22:34:33 68° 93° (E) 1,025 4.4 -22.5°
Drops below altitude 10° 22:40:37 10° 12° (NNE) 2,687 7.2 -23.4°
Sets 22:43:08 0° 10° (N) 3,637 8.0 -23.8°
